This is the latest recevied weather packets stored in our database for station/object KB9PVH-8. If no packets are shown the sender has not sent any weather packets the latest 10 day(s).
| Time | Temp. | Humidity | Pressure | Rain* | Wind** | Luminosity | Snow |
|---|---|---|---|---|---|---|---|
| 1787963030 | 23.33° C | - | - | 0 mm | 0 m/s | - | - |
| 1787962974 | 23.33° C | - | - | 0 mm | 0 m/s | - | - |
| 1787962134 | 24.44° C | - | - | 0 mm | 0.45 m/s, ° | - | - |
| 1787961294 | 25.56° C | - | - | 0 mm | 1.34 m/s, ° | - | - |
| 1787960524 | 25.56° C | - | - | 0 mm | 2.24 m/s, ° | - | - |
| 1787960454 | 25.56° C | - | - | 0 mm | 2.24 m/s, ° | - | - |
| 1787959667 | 26.11° C | - | - | 0 mm | 2.24 m/s, ° | - | - |
| 1787959615 | 26.11° C | - | - | 0 mm | 2.24 m/s, ° | - | - |
| 1787958774 | 27.22° C | - | - | 0 mm | 2.68 m/s, ° | - | - |
| 1787957936 | 27.78° C | - | - | 0 mm | 3.58 m/s, ° | - | - |
| 1787957098 | 28.33° C | - | - | 0 mm | 4.02 m/s, ° | - | - |
| 1787952896 | 28.89° C | - | - | 0 mm | 7.6 m/s, ° | - | - |
| 1787952055 | 28.33° C | - | - | 0 mm | 16.09 m/s, ° | - | - |
| 1787951216 | 28.33° C | - | - | 0 mm | 16.99 m/s, ° | - | - |
| 1787949534 | 28.33° C | - | - | 0 mm | 23.25 m/s, ° | - | - |
| 1787948694 | 28.33° C | - | - | 0 mm | 24.14 m/s, ° | - | - |
| 1787947902 | 28.33° C | - | - | 0 mm | 25.03 m/s, ° | - | - |
| 1787947854 | 28.33° C | - | - | 0 mm | 25.03 m/s, ° | - | - |
| 1787947014 | 28.33° C | - | - | 0 mm | 25.48 m/s, ° | - | - |
| 1787946176 | 27.78° C | - | - | 0 mm | 27.72 m/s, ° | - | - |
| 1787945334 | 27.78° C | - | - | 0 mm | 29.5 m/s, ° | - | - |
| 1787944495 | 28.33° C | - | - | 0 mm | 31.29 m/s, ° | - | - |
| 1787941974 | 26.67° C | - | - | 0 mm | 33.98 m/s, ° | - | - |
| 1787941135 | 25.56° C | - | - | 0 mm | 35.76 m/s, ° | - | - |
| 1787940296 | 25.56° C | - | - | 0 mm | 9.83 m/s, ° | - | - |
* Rain latest hour (hover to see other rain measurements)
** Current wind speed in m/s (hover to see current wind gust speed)